Hourly Data Report for October 02, 2019

All times are specified in Local Standard Time (LST). Add 1 hour to adjust for Daylight Saving Time where and when it is observed.

ABBOTSFORD A
BRITISH COLUMBIA
Current Station Operator: NAVCAN

49°01'31.000" N
122°21'36.000" W
59.10 m
1100031
71108
YXX

Download Data

Hourly Data (October 2019)
Hourly Data Report for October 2, 2019
TIME Temp Definition
°C
Dew Point Definition
°C
Rel Hum Definition
%
Wind Dir Definition
10's deg

Wind Spd Definition
km/h
Visibility Definition
km
Stn Press Definition
kPa
Hmdx Definition


Wind Chill Definition


Weather Definition


00:00 7.2 4.5 83 1 7 24.1 101.26     LegendNANA
01:00 7.3 4.5 82 36 6 24.1 101.26     Mainly Clear
02:00 6.6 3.8 82 36 1 24.1 101.25     LegendNANA
03:00 6.5 4.5 86 36 3 24.1 101.22     LegendNANA
04:00 6.9 4.4 84 36 3 24.1 101.19     Mostly Cloudy
05:00 6.2 4.3 88 2 5 24.1 101.17     LegendNANA
06:00 7.0 4.8 86 1 6 40.2 101.19     LegendNANA
07:00 7.4 5.4 87 36 5 48.3 101.19     Mostly Cloudy
08:00 9.1 6.3 83 1 9 48.3 101.18     LegendNANA
09:00 10.8 6.3 74 36 5 48.3 101.17     LegendNANA
10:00 11.6 5.8 67 36 1 48.3 101.13     Mostly Cloudy
11:00 13.5 6.3 61 1 7 48.3 101.08     LegendNANA
12:00 14.0 5.9 58 2 7 48.3 101.02     LegendNANA
13:00 15.3 5.7 52 36 10 48.3 100.93     Mostly Cloudy
14:00 16.1 5.1 48 33 9 48.3 100.88     LegendNANA
15:00 15.6 4.1 46 7 3 48.3 100.84     LegendNANA
16:00 15.3 5.8 53 4 7 48.3 100.78     Cloudy
17:00 14.8 6.6 58 34 5 48.3 100.77     LegendNANA
18:00 13.6 7.3 66 3 5 32.2 100.75     LegendNANA
19:00 12.9 7.1 67 3 8 24.1 100.72     Cloudy
20:00 12.2 7.6 73 9 5 24.1 100.75     Rain
21:00 12.8 7.1 68 7 10 16.1 100.74     Rain
22:00 11.9 6.9 71 36 2 16.1 100.79     Rain
23:00 10.8 8.4 84 7 6 16.1 100.84     Rain

Notes on Data Quality.

Legend

  • E = Estimated
  • M = Missing
  • NA = Not Available
Date modified: